20050105,36
20050207,31
20050307,34
20050405,34
20050506,33
20050606,35
20050705,35
20050805,60
20050905,60
20051005,60
20051107,60
20051205,60
20060105,60
20060206,60
20060306,60
20060405,60
20060508,60
20060605,60
20060705,60
20060807,60
20060905,60
20061005,60
20061106,60
20061205,60
20070105,60
20070205,60
20070305,60
20070405,60
20070507,60
20070605,60
20070705,60
20070806,60
20070905,60
20071005,60
20071105,60
20071205,60
20080107,60
20080205,60
20080305,60
20080407,60
20080507,60
20080605,60
20080707,60
20080805,60
20080905,60
20081006,60
20081105,60
20081205,60
20090105,60
20090205,60
20090305,60
20090406,60
20090507,60
20090605,60
20090706,60
20090805,60
20090907,60
20091005,60
20091105,60
20091207,60
20100105,60
20100205,60
20100305,60
20100405,60
20100506,60
20100607,60
20100705,60
20100805,90
20100906,90
20101005,90
20101105,90
20101206,90
20110105,90
20110207,90
20110307,90
20110405,90
20110506,90
20110606,90
20110705,90
20110805,90
20110905,90
20111005,90
20111107,90
20111205,90
20120105,90
20120206,90
20120305,90
20120405,90
20120507,90
20120605,90
20120705,90
20120806,75
20120905,75
20121005,75
20121105,75
20121205,75
20130107,75
20130205,75
20130305,75
20130405,75
20130507,75
20130605,75
20130705,75
20130805,75
20130905,75
20131007,75
20131105,75
20131205,75
20140106,75
20140205,75
20140305,75
20140407,75
20140507,75
20140605,75
20140707,75
20140805,75
20140905,75
20141006,75
20141105,75
20141205,75
20150105,75
20150205,75
20150305,75
20150406,75
20150507,75
20150605,75
20150706,75
20150805,75
20150907,75
20151005,75
20151105,75
20151207,75
20160105,75
20160205,75
20160307,75
20160405,75
20160506,75
20160606,75
20160705,75
20160805,75
20160905,75
20161005,75
20161107,75
20161205,75
20170105,50
20170206,50
20170306,50
20170405,50
20170508,50
20170605,50
20170705,50
20170807,50
20170905,50
20171005,50
20171106,50
20171205,50
20180105,50
20180205,50
20180305,50
20180405,25
20180507,25
20180605,25
20180705,25
20180806,25
20180905,25
20181005,25
20181105,25
20181205,25
20190107,25
20190205,25
20190305,25
20190405,25
20190507,25
20190605,25
20190705,25
20190805,25
20190905,25
20191007,25
20191105,25
20191205,25
20200106,25
20200205,25
20200305,25
20200406,25
20200507,25
20200605,25
20200706,25
20200805,25
20200907,25
20201005,25
20201105,25
20201207,25
20210105,25
20210205,25
20210305,25
20210405,25
20210506,25
20210607,25
20210705,25
20210805,25
20210906,25
20211005,25
20211105,25
20211206,25
20220105,25
20220207,25
20220307,25
20220405,25
20220506,25
20220606,25
20220705,25
20220805,25
20220905,25
20221005,25
20221107,25
20221205,25
20230105,25
20230206,25
20230306,25
20230405,25
20230508,25
20230605,25
20230705,25
20230807,25
20230905,25
20231005,25
20231106,25
20231205,25
20240105,25
20240205,25
20240305,25
20240405,25
20240507,15
